| time (UTC) | temp C | wind direction | speed KPH | gust KPH | rain 1hr cm | rain 24hr cm | rain mn cm | humidity % | barometer mb |
| 20260904123604 | 14 | 160 | 6.4 | 14.5 | 0.00 | 0.28 | 0.13 | 80 | 995.2 |
| 20260904122725 | 14 | 159 | 6.4 | 16.1 | 0.00 | 0.28 | 0.13 | 79 | 995.1 |
| 20260904121825 | 13 | 169 | 6.4 | 14.5 | 0.00 | 0.28 | 0.13 | 80 | 995.4 |
| 20260904120904 | 13 | 168 | 4.8 | 9.7 | 0.00 | 0.28 | 0.13 | 80 | 995.5 |
| 20260904120004 | 13 | 169 | 6.4 | 12.9 | 0.00 | 0.28 | 0.13 | 80 | 995.5 |
| 20260904115404 | 13 | 179 | 4.8 | 12.9 | 0.00 | 0.28 | 0.13 | 80 | 995.5 |
| 20260904114504 | 13 | 181 | 4.8 | 9.7 | 0.00 | 0.28 | 0.13 | 81 | 995.6 |
| 20260904113604 | 13 | 167 | 3.2 | 8.0 | 0.00 | 0.28 | 0.13 | 80 | 995.8 |
| 20260904112704 | 13 | 199 | 3.2 | 8.0 | 0.00 | 0.28 | 0.13 | 83 | 995.8 |
| 20260904111804 | 13 | 190 | 3.2 | 8.0 | 0.00 | 0.28 | 0.13 | 83 | 995.8 |
| 20260904110904 | 13 | 164 | 4.8 | 11.3 | 0.00 | 0.28 | 0.13 | 84 | 995.8 |
| 20260904110025 | 13 | 167 | 4.8 | 12.9 | 0.00 | 0.28 | 0.13 | 85 | 995.9 |
| 20260904105404 | 12 | 168 | 4.8 | 12.9 | 0.00 | 0.28 | 0.13 | 85 | 995.9 |
| 20260904104525 | 12 | 163 | 4.8 | 11.3 | 0.00 | 0.28 | 0.13 | 85 | 996.0 |
| 20260904103605 | 12 | 169 | 6.4 | 11.3 | 0.00 | 0.28 | 0.13 | 85 | 996.0 |
| 20260904102704 | 12 | 165 | 4.8 | 8.0 | 0.00 | 0.28 | 0.13 | 86 | 996.1 |
| 20260904101825 | 12 | 169 | 4.8 | 9.7 | 0.00 | 0.28 | 0.13 | 85 | 996.3 |
| 20260904100904 | 12 | 171 | 3.2 | 8.0 | 0.00 | 0.28 | 0.13 | 85 | 996.3 |
| 20260904100004 | 12 | 159 | 3.2 | 9.7 | 0.00 | 0.28 | 0.13 | 85 | 996.3 |
| 20260904095404 | 12 | 164 | 6.4 | 11.3 | 0.00 | 0.28 | 0.13 | 85 | 996.3 |
| 20260904094504 | 12 | 158 | 4.8 | 9.7 | 0.00 | 0.28 | 0.13 | 87 | 996.4 |
| 20260904093604 | 12 | 167 | 4.8 | 8.0 | 0.00 | 0.28 | 0.13 | 86 | 996.3 |
| 20260904092704 | 12 | 172 | 4.8 | 11.3 | 0.00 | 0.28 | 0.13 | 87 | 996.5 |
| 20260904091825 | 12 | 151 | 6.4 | 11.3 | 0.00 | 0.28 | 0.13 | 87 | 996.5 |
| 20260904090904 | 12 | 185 | 3.2 | 11.3 | 0.00 | 0.28 | 0.13 | 87 | 996.5 |
| 20260904090004 | 12 | 179 | 3.2 | 11.3 | 0.00 | 0.28 | 0.13 | 88 | 996.4 |
| 20260904085404 | 12 | 157 | 4.8 | 11.3 | 0.00 | 0.28 | 0.13 | 88 | 996.5 |
| 20260904084504 | 12 | 161 | 4.8 | 12.9 | 0.00 | 0.28 | 0.13 | 88 | 996.4 |
| 20260904083604 | 12 | 155 | 6.4 | 11.3 | 0.00 | 0.28 | 0.13 | 89 | 996.5 |
| 20260904082704 | 12 | 164 | 6.4 | 9.7 | 0.00 | 0.28 | 0.13 | 89 | 996.5 |
| 20260904081825 | 12 | 167 | 4.8 | 8.0 | 0.00 | 0.28 | 0.13 | 90 | 996.5 |
| 20260904080904 | 11 | 163 | 4.8 | 9.7 | 0.00 | 0.28 | 0.13 | 91 | 996.5 |
| 20260904080004 | 11 | 163 | 4.8 | 9.7 | 0.00 | 0.28 | 0.13 | 91 | 996.5 |
| 20260904075404 | 11 | 166 | 6.4 | 11.3 | 0.00 | 0.28 | 0.13 | 91 | 996.5 |
| 20260904074504 | 11 | 173 | 6.4 | 11.3 | 0.00 | 0.28 | 0.13 | 91 | 996.4 |
| 20260904073625 | 11 | 169 | 6.4 | 9.7 | 0.00 | 0.28 | 0.13 | 91 | 996.4 |
| 20260904072704 | 11 | 169 | 6.4 | 11.3 | 0.00 | 0.28 | 0.13 | 91 | 996.6 |
| 20260904071825 | 11 | 172 | 4.8 | 9.7 | 0.00 | 0.28 | 0.13 | 91 | 996.4 |
| 20260904070904 | 11 | 164 | 4.8 | 9.7 | 0.00 | 0.28 | 0.13 | 91 | 996.4 |
| 20260904070004 | 11 | 165 | 4.8 | 9.7 | 0.00 | 0.28 | 0.13 | 92 | 996.4 |
| 20260904065404 | 11 | 160 | 4.8 | 9.7 | 0.00 | 0.28 | 0.13 | 92 | 996.5 |
| 20260904064504 | 11 | 169 | 4.8 | 11.3 | 0.00 | 0.28 | 0.13 | 93 | 996.5 |
| 20260904063604 | 10 | 166 | 4.8 | 9.7 | 0.00 | 0.28 | 0.13 | 93 | 996.5 |
| 20260904062704 | 10 | 166 | 4.8 | 9.7 | 0.00 | 0.28 | 0.13 | 93 | 996.5 |
| 20260904061804 | 10 | 176 | 3.2 | 8.0 | 0.00 | 0.28 | 0.13 | 93 | 996.5 |
| 20260904060904 | 10 | 186 | 1.6 | 6.4 | 0.00 | 0.28 | 0.13 | 93 | 996.5 |
| 20260904060004 | 10 | 186 | 1.6 | 4.8 | 0.00 | 0.28 | 0.13 | 94 | 996.7 |
| 20260904055404 | 10 | 190 | 1.6 | 6.4 | 0.00 | 0.28 | 0.13 | 94 | 996.7 |
| 20260904054504 | 10 | 197 | 3.2 | 11.3 | 0.00 | 0.28 | 0.13 | 95 | 996.7 |
| 20260904053604 | 10 | 170 | 3.2 | 9.7 | 0.00 | 0.28 | 0.13 | 95 | 996.7 |
| 20260904052704 | 10 | 201 | 3.2 | 9.7 | 0.00 | 0.28 | 0.13 | 95 | 996.7 |
| 20260904051825 | 9 | 197 | 1.6 | 4.8 | 0.00 | 0.28 | 0.13 | 95 | 996.8 |
| 20260904050904 | 9 | 197 | 1.6 | 6.4 | 0.00 | 0.28 | 0.13 | 95 | 996.9 |
| 20260904050004 | 8 | 197 | 1.6 | 4.8 | 0.00 | 0.28 | 0.13 | 95 | 996.8 |
| 20260904045425 | 8 | 197 | 1.6 | 4.8 | 0.00 | 0.28 | 0.13 | 95 | 996.9 |
| 20260904044504 | 8 | 196 | 0.0 | 3.2 | 0.00 | 0.28 | 0.13 | 94 | 997.0 |
| 20260904043604 | 8 | 197 | 0.0 | 1.6 | 0.00 | 0.28 | 0.13 | 94 | 997.0 |
| 20260904042704 | 8 | 197 | 1.6 | 3.2 | 0.00 | 0.28 | 0.13 | 94 | 997.0 |
| 20260904041804 | 8 | 197 | 1.6 | 3.2 | 0.00 | 0.28 | 0.13 | 94 | 997.1 |
| 20260904040904 | 8 | 197 | 1.6 | 4.8 | 0.00 | 0.28 | 0.13 | 94 | 997.1 |
| 20260904040025 | 8 | 197 | 1.6 | 4.8 | 0.00 | 0.28 | 0.13 | 95 | 997.2 |
| 20260904035425 | 8 | 197 | 1.6 | 3.2 | 0.00 | 0.28 | 0.13 | 94 | 997.2 |
| 20260904034504 | 8 | 197 | 0.0 | 3.2 | 0.00 | 0.28 | 0.13 | 94 | 997.2 |
| 20260904033604 | 8 | 197 | 1.6 | 6.4 | 0.00 | 0.28 | 0.13 | 94 | 997.1 |
| 20260904032725 | 8 | 197 | 0.0 | 4.8 | 0.00 | 0.28 | 0.13 | 94 | 997.3 |
| 20260904031804 | 8 | 197 | 0.0 | 1.6 | 0.00 | 0.28 | 0.13 | 94 | 997.3 |
| 20260904030904 | 8 | 197 | 0.0 | 3.2 | 0.00 | 0.28 | 0.13 | 94 | 997.4 |
| 20260904030004 | 8 | 197 | 1.6 | 4.8 | 0.00 | 0.28 | 0.13 | 94 | 997.4 |
| 20260904025425 | 8 | 197 | 1.6 | 4.8 | 0.00 | 0.28 | 0.13 | 94 | 997.4 |
| 20260904024504 | 8 | 197 | 1.6 | 4.8 | 0.00 | 0.28 | 0.13 | 94 | 997.4 |
| 20260904023604 | 8 | 197 | 0.0 | 3.2 | 0.00 | 0.28 | 0.13 | 94 | 997.5 |
| 20260904022725 | 8 | 197 | 1.6 | 6.4 | 0.00 | 0.28 | 0.13 | 94 | 997.5 |
| 20260904021804 | 8 | 197 | 1.6 | 4.8 | 0.00 | 0.28 | 0.13 | 94 | 997.5 |
| 20260904020904 | 8 | 205 | 1.6 | 6.4 | 0.00 | 0.28 | 0.13 | 94 | 997.6 |
| 20260904020025 | 8 | 179 | 1.6 | 6.4 | 0.03 | 0.28 | 0.13 | 94 | 997.6 |
| 20260904015404 | 8 | 197 | 3.2 | 6.4 | 0.03 | 0.28 | 0.13 | 94 | 997.6 |
| 20260904014504 | 9 | 217 | 1.6 | 8.0 | 0.03 | 0.28 | 0.13 | 94 | 997.6 |
| 20260904013625 | 9 | 344 | 1.6 | 3.2 | 0.03 | 0.28 | 0.13 | 94 | 997.7 |
| 20260904012704 | 9 | 344 | 1.6 | 4.8 | 0.03 | 0.28 | 0.13 | 94 | 997.7 |
| 20260904011804 | 9 | 344 | 1.6 | 4.8 | 0.03 | 0.28 | 0.13 | 94 | 997.8 |
| 20260904010904 | 9 | 344 | 0.0 | 1.6 | 0.05 | 0.28 | 0.13 | 94 | 997.9 |
| 20260904010004 | 9 | 344 | 0.0 | 3.2 | 0.05 | 0.25 | 0.10 | 94 | 997.9 |
| 20260904005404 | 9 | 344 | 0.0 | 1.6 | 0.05 | 0.25 | 0.10 | 94 | 997.9 |
| 20260904004504 | 9 | 0 | 0.0 | 0.0 | 0.08 | 0.25 | 0.10 | 94 | 998.0 |
| 20260904003604 | 9 | 0 | 0.0 | 0.0 | 0.08 | 0.25 | 0.10 | 94 | 998.1 |
| 20260904002704 | 9 | 0 | 0.0 | 0.0 | 0.10 | 0.25 | 0.10 | 94 | 998.2 |
| 20260904001804 | 9 | 0 | 0.0 | 0.0 | 0.10 | 0.25 | 0.10 | 94 | 998.2 |
| 20260904000925 | 9 | 344 | 0.0 | 3.2 | 0.08 | 0.23 | 0.08 | 94 | 998.2 |
| 20260904000025 | 9 | 344 | 0.0 | 3.2 | 0.05 | 0.20 | 0.05 | 94 | 998.3 |
| 20260903235404 | 9 | 0 | 0.0 | 0.0 | 0.05 | 0.20 | 0.05 | 94 | 998.3 |
| 20260903234525 | 9 | 344 | 0.0 | 1.6 | 0.03 | 0.18 | 0.03 | 94 | 998.3 |
| 20260903233604 | 9 | 0 | 0.0 | 0.0 | 0.03 | 0.18 | 0.03 | 94 | 998.3 |
| 20260903232704 | 9 | 0 | 0.0 | 0.0 | 0.00 | 0.15 | 0.00 | 94 | 998.3 |
| 20260903231804 | 9 | 344 | 0.0 | 1.6 | 0.00 | 0.15 | 0.00 | 94 | 998.3 |
| 20260903230904 | 9 | 344 | 0.0 | 3.2 | 0.00 | 0.15 | 0.00 | 94 | 998.4 |
| 20260903230025 | 9 | 0 | 0.0 | 0.0 | 0.00 | 0.15 | 0.00 | 94 | 998.4 |
| 20260903225404 | 9 | 344 | 0.0 | 3.2 | 0.00 | 0.15 | 0.00 | 94 | 998.5 |
| 20260903224504 | 9 | 344 | 0.0 | 4.8 | 0.00 | 0.15 | 0.00 | 94 | 998.4 |
| 20260903223604 | 9 | 296 | 0.0 | 6.4 | 0.00 | 0.15 | 0.00 | 94 | 998.4 |
| 20260903222704 | 9 | 158 | 0.0 | 3.2 | 0.00 | 0.15 | 0.00 | 94 | 998.5 |
| 20260903221804 | 9 | 158 | 0.0 | 4.8 | 0.00 | 0.15 | 0.00 | 94 | 998.5 |
| 20260903220904 | 9 | 180 | 0.0 | 8.0 | 0.00 | 0.15 | 0.00 | 94 | 998.5 |
| 20260903220004 | 9 | 213 | 1.6 | 9.7 | 0.00 | 0.15 | 0.00 | 94 | 998.5 |
| 20260903215404 | 9 | 259 | 0.0 | 4.8 | 0.00 | 0.15 | 0.00 | 94 | 998.5 |
| 20260903214525 | 9 | 259 | 0.0 | 3.2 | 0.00 | 0.15 | 0.00 | 94 | 998.4 |
| 20260903213625 | 10 | 259 | 0.0 | 3.2 | 0.00 | 0.15 | 0.00 | 94 | 998.4 |
| 20260903212704 | 10 | 214 | 1.6 | 8.0 | 0.00 | 0.15 | 0.00 | 94 | 998.5 |
| 20260903211804 | 10 | 155 | 1.6 | 4.8 | 0.00 | 0.15 | 0.00 | 94 | 998.6 |
| 20260903210904 | 10 | 155 | 0.0 | 1.6 | 0.00 | 0.15 | 0.00 | 94 | 998.6 |
| 20260903210006 | 10 | 155 | 0.0 | 3.2 | 0.00 | 0.15 | 0.00 | 94 | 998.7 |
| 20260903205425 | 10 | 155 | 1.6 | 4.8 | 0.03 | 0.15 | 0.15 | 94 | 998.7 |
| 20260903204504 | 10 | 155 | 0.0 | 1.6 | 0.03 | 0.15 | 0.15 | 93 | 998.7 |
| 20260903203625 | 10 | 155 | 0.0 | 1.6 | 0.03 | 0.15 | 0.15 | 93 | 998.7 |
| 20260903202704 | 10 | 155 | 0.0 | 3.2 | 0.03 | 0.15 | 0.15 | 93 | 998.7 |
| 20260903201825 | 10 | 155 | 1.6 | 4.8 | 0.03 | 0.15 | 0.15 | 93 | 998.7 |
| 20260903200925 | 10 | 0 | 0.0 | 0.0 | 0.03 | 0.15 | 0.15 | 93 | 998.9 |
| 20260903200004 | 10 | 0 | 0.0 | 0.0 | 0.03 | 0.15 | 0.15 | 93 | 999.0 |
| 20260903195404 | 10 | 0 | 0.0 | 0.0 | 0.00 | 0.13 | 0.13 | 92 | 999.1 |
| 20260903194504 | 10 | 155 | 0.0 | 1.6 | 0.03 | 0.13 | 0.13 | 92 | 999.2 |
| 20260903193604 | 10 | 155 | 0.0 | 3.2 | 0.03 | 0.13 | 0.13 | 92 | 999.1 |
| 20260903192704 | 10 | 155 | 0.0 | 3.2 | 0.03 | 0.13 | 0.13 | 92 | 999.1 |
| 20260903191804 | 10 | 155 | 4.8 | 12.9 | 0.03 | 0.13 | 0.13 | 92 | 999.3 |
| 20260903190904 | 11 | 167 | 3.2 | 9.7 | 0.03 | 0.13 | 0.13 | 91 | 999.5 |
| 20260903190006 | 11 | 321 | 1.6 | 4.8 | 0.05 | 0.13 | 0.13 | 91 | 999.3 |
| 20260903185404 | 11 | 324 | 3.2 | 8.0 | 0.08 | 0.13 | 0.13 | 91 | 999.3 |
| 20260903184504 | 11 | 324 | 6.4 | 8.0 | 0.08 | 0.10 | 0.10 | 91 | 999.3 |
| 20260903183604 | 11 | 320 | 8.0 | 12.9 | 0.10 | 0.10 | 0.10 | 91 | 999.3 |
| 20260903182704 | 11 | 304 | 3.2 | 8.0 | 0.10 | 0.10 | 0.10 | 90 | 999.4 |
| 20260903181804 | 11 | 302 | 1.6 | 4.8 | 0.10 | 0.10 | 0.10 | 90 | 999.4 |
| 20260903180904 | 11 | 303 | 4.8 | 11.3 | 0.10 | 0.10 | 0.10 | 89 | 999.5 |
| 20260903180004 | 11 | 295 | 3.2 | 9.7 | 0.08 | 0.08 | 0.08 | 88 | 999.5 |
| 20260903175404 | 11 | 291 | 4.8 | 9.7 | 0.05 | 0.05 | 0.08 | 86 | 999.5 |
| 20260903174504 | 12 | 272 | 3.2 | 9.7 | 0.03 | 0.03 | 0.03 | 85 | 999.5 |
| 20260903173604 | 12 | 286 | 3.2 | 9.7 | 0.00 | 0.00 | 0.00 | 83 | 999.5 |
| 20260903172725 | 13 | 247 | 4.8 | 19.3 | 0.00 | 0.00 | 0.00 | 81 | 999.4 |
| 20260903171804 | 13 | 260 | 3.2 | 11.3 | 0.00 | 0.00 | 0.00 | 82 | 999.3 |
| 20260903170904 | 13 | 230 | 3.2 | 11.3 | 0.00 | 0.00 | 0.00 | 83 | 999.2 |
| 20260903170004 | 13 | 256 | 8.0 | 16.1 | 0.00 | 0.00 | 0.00 | 84 | 999.1 |
| 20260903165404 | 12 | 276 | 8.0 | 16.1 | 0.00 | 0.00 | 0.00 | 85 | 998.9 |
| 20260903164504 | 12 | 156 | 0.0 | 3.2 | 0.00 | 0.00 | 0.00 | 89 | 998.5 |
| 20260903163604 | 12 | 0 | 0.0 | 0.0 | 0.00 | 0.00 | 0.00 | 89 | 998.5 |
| 20260903162725 | 12 | 0 | 0.0 | 0.0 | 0.00 | 0.00 | 0.00 | 88 | 998.5 |
| 20260903161804 | 12 | 156 | 0.0 | 1.6 | 0.00 | 0.00 | 0.00 | 87 | 998.5 |
| 20260903160904 | 13 | 156 | 0.0 | 1.6 | 0.00 | 0.00 | 0.00 | 86 | 998.5 |
| 20260903160004 | 14 | 156 | 0.0 | 1.6 | 0.00 | 0.00 | 0.00 | 84 | 998.5 |
| 20260903155404 | 15 | 156 | 0.0 | 1.6 | 0.00 | 0.00 | 0.00 | 81 | 998.6 |
| 20260903154504 | 15 | 156 | 1.6 | 3.2 | 0.00 | 0.00 | 0.00 | 79 | 998.6 |
| 20260903153604 | 16 | 157 | 1.6 | 4.8 | 0.00 | 0.00 | 0.00 | 76 | 998.6 |
| 20260903152704 | 16 | 157 | 3.2 | 8.0 | 0.00 | 0.00 | 0.00 | 75 | 998.7 |
| 20260903151804 | 16 | 157 | 3.2 | 8.0 | 0.00 | 0.00 | 0.00 | 76 | 998.8 |
| 20260903150904 | 16 | 161 | 4.8 | 9.7 | 0.00 | 0.00 | 0.00 | 74 | 998.8 |
| 20260903150004 | 16 | 162 | 3.2 | 8.0 | 0.00 | 0.00 | 0.00 | 72 | 998.8 |
| 20260903145404 | 16 | 156 | 4.8 | 14.5 | 0.00 | 0.00 | 0.00 | 73 | 998.7 |
| 20260903144504 | 16 | 171 | 4.8 | 11.3 | 0.00 | 0.00 | 0.00 | 72 | 998.7 |
| 20260903143604 | 17 | 199 | 3.2 | 6.4 | 0.00 | 0.00 | 0.00 | 71 | 998.7 |
| 20260903142704 | 17 | 155 | 4.8 | 12.9 | 0.00 | 0.00 | 0.00 | 71 | 998.8 |
| 20260903141804 | 17 | 147 | 6.4 | 12.9 | 0.00 | 0.00 | 0.00 | 70 | 998.8 |
| 20260903140904 | 17 | 161 | 4.8 | 11.3 | 0.00 | 0.00 | 0.00 | 70 | 998.9 |
| 20260903140004 | 16 | 167 | 1.6 | 8.0 | 0.00 | 0.00 | 0.00 | 69 | 998.9 |
| 20260903135403 | 17 | 168 | 3.2 | 9.7 | 0.00 | 0.00 | 0.00 | 70 | 998.9 |
| 20260903134504 | 17 | 167 | 6.4 | 9.7 | 0.00 | 0.00 | 0.00 | 68 | 998.9 |
| 20260903133625 | 17 | 170 | 6.4 | 14.5 | 0.00 | 0.00 | 0.00 | 70 | 999.0 |
| 20260903132725 | 17 | 157 | 8.0 | 17.7 | 0.00 | 0.00 | 0.00 | 71 | 999.1 |
| 20260903131825 | 17 | 153 | 4.8 | 11.3 | 0.00 | 0.00 | 0.00 | 71 | 999.1 |
| 20260903130925 | 17 | 185 | 4.8 | 11.3 | 0.00 | 0.00 | 0.00 | 70 | 999.1 |
| 20260903130004 | 17 | 168 | 6.4 | 12.9 | 0.00 | 0.00 | 0.00 | 73 | 999.2 |
| 20260903125425 | 17 | 155 | 8.0 | 16.1 | 0.00 | 0.00 | 0.00 | 75 | 999.3 |
| 20260903124504 | 17 | 168 | 4.8 | 11.3 | 0.00 | 0.00 | 0.00 | 73 | 999.3 |